Voltar ao catálogo

STARLINK-2170

AtivoComunicaçõesVLEO
NORAD 47753·PAYLOAD·🇺🇸 United States

Lançado Mar 4, 2021 de Cape Canaveral Space Force Station

Loading…

Próximas Passagens (próximas 24 horas)

TLE

AtualizadoSource: CelesTrak SupGP

Época: Sep 14, 2026, 21:17 UTC

1 47753C 21017AH  26257.88729167  .00083798  00000+0  25025-2 0  2574
2 47753  53.1598  43.1378 0001577 328.0717 109.9340 15.34010890    11

Acompanhe STARLINK-2170 em tempo real com AllMySat

Download on the App Store